Погода в Селятине

Украина / Черновицкая область     47°52′24″N   25°11′11″E
темп.,
°C
ветер,
м/с
пор.,
м/с
влажн.,
%
обл.,
%
осадки,
мм/ч
давл.,
гПа
погр.,
м
9 мая, вс
вс900:00−2зюз11925 0.0 102512
03:00−3зюз229241 0.0 102721
06:00−2зюз22875 0.0 102730
09:00+6зсз245112 0.0 10251130
12:00+11зсз233211 0.0 10231924
15:00+13зсз33316 0.0 10222010
18:00+12с12385 0.0 10221518
21:00+4ююв11817 0.0 102511
10 мая, пн
пн1000:00+2юз22895 0.0 102615
03:00+2юз22885 0.0 102614
06:00+2юз22795 0.0 102514
09:00+12ююв12435 0.0 1022359
12:00+17юв22345 0.0 10211111
15:00+20вюв33315 0.0 10191795
18:00+17в44475 0.0 1019653
21:00+8юв11865 0.0 102110
11 мая, вт
вт1100:00+7юз21905 0.0 102111
03:00+7юз11910 0.0 102010
06:00+6ю11910 0.0 102011
09:00+13вюв22635 0.0 1018407
12:00+17в43424 0.0 10171108
15:00+18в43420 0.0 10161302
18:00+15вюв44550 0.0 1015829
21:00+7в11920 0.0 101613
12 мая, ср
ср1200:00+5вюв11960 0.0 101710
03:00+4ю11950 0.0 101511
06:00+3ююз11922 0.0 101411
09:00+10в24604 0.0 1010672
12:00+12в446387 0.0 10091155
15:00+11всв437463 0.1 1008697
18:00+8всв239098 0.1 1008474
21:00+6вюв1297100 0.1 1008386
13 мая, чт
чт1300:00+6ююв2498100 0.0 1007262
03:00+7ю2495100 0.0 1005153
06:00+7ю249697 0.3 1004169
09:00+8юз1393100 0.8 1004179
12:00+13юз245985 0.7 10031370
15:00+10з138597 2.3 1004335
18:00+9зюз3590100 1.9 1006379
21:00+7юз1194100 2.1 100614